Accueil
METAR-TAF:

METAR-TAF

Aéroports :

Pearson Field

Vancouver, Washington, États-Unis

latitude: 45-37-24N, longitude: 122-39-23W, altitude: 7 m

Observation

Le bulletin a été fait il y a 1 heure et 10 minutes, à 08:53 UTC
Vent calme
Température 16°C
Humidité 77%
Pression 1018 hPa
Visibilité: 16.1 km
Ciel clair

METAR: KVUO 190853Z AUTO 00000KT 10SM CLR 16/12 A3006 RMK AO2 SLP180 T01610117 50003

Heure: 03:03 (10:03 UTC)


TAF: absent

Observations et prévisions météorologiques de plus de 4000 aéroports (messages METAR et TAF).

Les stations disponibles sont représentées par des disques jaunes et rouges sur la carte.

Passer la souris dessus pour voir le nom de la station.

Cliquer dessus pour voir les observations et prévisions météorologiques.

Pour changer de carte: cliquez sur les boutons verts avec une croix noire pour zoomer, sur le bouton vert avec un tiret pour effectuer un zoom arrière, ou sur les flèches vertes pour les cartes adjacentes.


METAR-TAF: